EW2799 Weather Reports


time (UTC)temp
C
wind
direction
speed
KPH
gust
KPH
rain 1hr
cm
rain 24hr
cm
rain mn
cm
humidity
%
barometer
mb
20260906114027 21 0 0.0 0.0 0.00 2.16 0.00 98 1014.4
20260906113530 21 0 0.0 0.0 0.00 2.16 0.00 98 1014.4
20260906113051 21 0 0.0 0.0 0.00 2.16 0.00 98 1014.3
20260906112527 21 0 0.0 0.0 0.00 2.16 0.00 98 1014.2
20260906112028 21 0 0.0 0.0 0.00 2.16 0.00 98 1014.2
20260906111548 21 0 0.0 0.0 0.00 2.16 0.00 98 1014.1
20260906111028 21 0 0.0 0.0 0.00 2.16 0.00 98 1014.0
20260906110527 21 0 0.0 0.0 0.00 2.16 0.00 98 1014.0
20260906110043 21 0 0.0 0.0 0.00 2.16 0.00 98 1013.9
20260906105531 21 0 0.0 0.0 0.00 2.16 0.00 98 1014.0
20260906105030 21 0 0.0 0.0 0.00 2.16 0.00 98 1013.7
20260906104551 21 0 0.0 0.0 0.00 2.16 0.00 98 1013.8
20260906104030 21 0 0.0 0.0 0.00 2.16 0.00 98 1013.7
20260906103529 21 0 0.0 0.0 0.00 2.16 0.00 98 1013.7
20260906103049 21 0 0.0 0.0 0.00 2.16 0.00 98 1013.5
20260906102529 21 0 0.0 0.0 0.00 2.16 0.00 98 1013.6
20260906102028 21 0 0.0 0.0 0.00 2.16 0.00 98 1013.6
20260906101558 21 0 0.0 0.0 0.00 2.16 0.00 98 1013.7
20260906101027 21 0 0.0 0.0 0.00 2.16 0.00 98 1013.8
20260906100530 21 0 0.0 0.0 0.00 2.16 0.00 98 1013.8
20260906100055 21 0 0.0 0.0 0.00 2.16 0.00 98 1013.8
20260906095533 21 0 0.0 0.0 0.00 2.16 0.00 98 1013.7
20260906095031 21 0 0.0 0.0 0.00 2.16 0.00 98 1013.5
20260906094549 21 0 0.0 0.0 0.00 2.16 0.00 98 1013.5
20260906094030 21 0 0.0 0.0 0.00 2.16 0.00 98 1013.5
20260906093527 21 0 0.0 0.0 0.00 2.16 0.00 98 1013.4
20260906093057 21 0 0.0 3.2 0.00 2.16 0.00 98 1013.4
20260906092533 21 0 0.0 3.2 0.00 2.16 0.00 98 1013.4
20260906092029 21 54 0.0 3.2 0.00 2.16 0.00 98 1013.5
20260906091550 21 0 0.0 1.6 0.00 2.16 0.00 98 1013.5
20260906091027 21 0 0.0 1.6 0.00 2.16 0.00 98 1013.6
20260906090527 21 0 0.0 3.2 0.00 2.16 0.00 98 1013.5
20260906090058 21 0 0.0 3.2 0.00 2.16 0.00 98 1013.4
20260906085531 21 44 0.0 1.6 0.00 2.16 0.00 98 1013.4
20260906085027 21 0 0.0 1.6 0.00 2.16 0.00 98 1013.5
20260906084555 21 0 0.0 1.6 0.00 2.16 0.00 98 1013.4
20260906084029 21 0 0.0 0.0 0.00 2.16 0.00 98 1013.3
20260906083530 21 0 0.0 1.6 0.00 2.16 0.00 98 1013.3
20260906083048 21 0 0.0 1.6 0.00 2.16 0.00 98 1013.3
20260906082527 21 0 0.0 3.2 0.00 2.16 0.00 98 1013.2
20260906082028 21 0 0.0 6.4 0.00 2.16 0.00 98 1013.2
20260906081549 21 0 0.0 6.4 0.00 2.16 0.00 98 1013.2
20260906081027 21 69 0.0 6.4 0.00 2.16 0.00 98 1013.2
20260906080527 21 0 0.0 0.0 0.00 2.16 0.00 98 1013.1
20260906080053 21 0 0.0 0.0 0.00 2.16 0.00 98 1013.0
20260906075527 21 0 0.0 3.2 0.00 2.16 0.00 98 1013.1
20260906075032 21 0 0.0 3.2 0.00 2.16 0.00 98 1013.1
20260906074558 21 0 0.0 3.2 0.00 2.16 0.00 98 1013.1
20260906074029 21 0 0.0 4.8 0.00 2.16 0.00 98 1013.0
20260906073530 21 39 0.0 4.8 0.00 2.16 0.00 98 1013.0
20260906073050 21 39 0.0 4.8 0.00 2.16 0.00 98 1012.9
20260906072531 21 66 0.0 3.2 0.00 2.16 0.00 98 1013.1
20260906072031 21 0 0.0 0.0 0.00 2.16 0.00 98 1013.0
20260906071549 21 0 0.0 0.0 0.00 2.16 0.00 98 1013.0
20260906071029 21 0 0.0 0.0 0.00 2.16 0.00 98 1013.1
20260906070527 21 0 0.0 0.0 0.00 2.16 0.00 98 1013.3
20260906070047 21 0 0.0 0.0 0.00 2.16 0.00 98 1013.4
20260906065529 21 0 0.0 0.0 0.00 2.16 0.00 98 1013.4
20260906065028 21 0 0.0 0.0 0.00 2.16 0.00 98 1013.5
20260906064552 21 0 0.0 0.0 0.00 2.16 0.00 98 1013.6
20260906064028 21 0 0.0 0.0 0.00 2.16 0.00 98 1013.5
20260906063533 21 0 0.0 0.0 0.00 2.16 0.00 98 1013.7
20260906063052 21 0 0.0 0.0 0.00 2.16 0.00 98 1013.8
20260906062531 21 0 0.0 0.0 0.00 2.16 0.00 98 1013.9
20260906062029 21 0 0.0 0.0 0.00 2.16 0.00 98 1013.9
20260906061549 21 0 0.0 1.6 0.00 2.16 0.00 97 1014.0
20260906061027 21 0 0.0 1.6 0.00 2.16 0.00 97 1014.0
20260906060529 21 0 0.0 3.2 0.00 2.16 0.00 97 1014.1
20260906060056 21 0 0.0 3.2 0.00 2.16 0.00 97 1014.1
20260906055528 21 0 0.0 0.0 0.00 2.16 0.00 97 1013.9
20260906055030 21 0 0.0 0.0 0.00 2.16 0.00 97 1014.0
20260906054552 21 0 0.0 0.0 0.00 2.16 0.00 97 1014.1
20260906054030 21 0 0.0 0.0 0.00 2.16 0.00 97 1014.0
20260906053530 21 0 0.0 0.0 0.00 2.16 0.00 97 1014.0
20260906053050 21 0 0.0 0.0 0.00 2.16 0.00 97 1014.1
20260906052533 21 0 0.0 0.0 0.00 2.16 0.00 97 1014.2
20260906052028 21 0 0.0 0.0 0.00 2.16 0.00 97 1014.2
20260906051554 21 0 0.0 0.0 0.00 2.16 0.00 97 1014.2
20260906051028 21 0 0.0 0.0 0.00 2.16 0.00 97 1014.2
20260906050528 21 0 0.0 0.0 0.00 2.16 0.00 97 1014.3
20260906050059 21 0 0.0 0.0 0.00 2.16 0.00 97 1014.3
20260906045527 21 0 0.0 0.0 0.00 2.16 0.00 97 1014.4
20260906045030 21 0 0.0 0.0 0.00 2.16 0.00 97 1014.2
20260906044552 21 0 0.0 0.0 0.00 2.16 0.00 97 1014.2
20260906044034 21 0 0.0 0.0 0.00 2.16 0.00 97 1014.1
20260906043527 21 0 0.0 0.0 0.00 2.16 0.00 97 1014.1
20260906043049 21 0 0.0 0.0 0.00 2.16 0.00 97 1014.0
20260906042527 21 0 0.0 0.0 0.00 2.16 0.00 97 1013.9
20260906042027 21 0 0.0 4.8 0.00 2.16 0.00 97 1013.8
20260906041639 21 0 0.0 4.8 0.00 2.16 0.00 97 1013.9
20260906041029 21 0 0.0 4.8 0.00 2.16 0.00 97 1013.7
20260906040529 22 0 0.0 0.0 0.00 2.16 0.00 97 1013.7
20260906040056 22 0 0.0 0.0 0.00 2.16 0.00 97 1013.9
20260906035530 22 0 0.0 0.0 0.00 2.16 2.16 97 1013.8
20260906035030 22 0 0.0 3.2 0.00 2.16 2.16 97 1013.8
20260906034552 22 0 0.0 3.2 0.00 2.16 2.16 96 1013.9
20260906034034 22 0 0.0 3.2 0.03 2.16 2.16 97 1014.0
20260906033527 22 0 0.0 0.0 0.03 2.16 2.16 97 1014.1
20260906033050 22 0 0.0 0.0 0.03 2.16 2.16 96 1014.1
20260906032527 21 0 0.0 0.0 0.03 2.16 2.16 96 1014.1
20260906032028 21 0 0.0 0.0 0.03 2.16 2.16 96 1014.1
20260906031558 21 0 0.0 1.6 0.03 2.16 2.16 96 1014.2
20260906031031 22 0 0.0 3.2 0.03 2.16 2.16 95 1014.2
20260906030530 22 0 0.0 4.8 0.03 2.16 2.16 96 1014.3
20260906030054 22 43 1.6 4.8 0.03 2.16 2.16 96 1014.4
20260906025527 22 0 1.6 4.8 0.03 2.16 2.16 96 1014.3
20260906025029 22 0 0.0 1.6 0.03 2.16 2.16 96 1014.1
20260906024600 22 0 0.0 4.8 0.03 2.16 2.16 96 1014.2
20260906024028 22 0 0.0 4.8 0.00 2.13 2.13 96 1014.4
20260906023530 22 86 1.6 4.8 0.00 2.13 2.13 96 1014.4
20260906023058 22 86 0.0 4.8 0.00 2.13 2.13 96 1014.3
20260906022528 22 0 0.0 1.6 0.00 2.13 2.13 96 1014.2
20260906022032 22 0 0.0 0.0 0.00 2.13 2.13 96 1014.4
20260906021557 22 0 0.0 0.0 0.00 2.13 2.13 96 1014.4
20260906021027 22 0 0.0 1.6 0.00 2.13 2.13 95 1014.4
20260906020529 21 0 0.0 1.6 0.00 2.13 2.13 95 1014.3
20260906020048 21 221 0.0 6.4 0.36 2.13 2.13 95 1014.2
20260906015533 21 0 1.6 8.0 1.14 2.13 2.13 95 1014.2
20260906015029 21 56 1.6 8.0 2.06 2.13 2.13 95 1014.4
20260906014605 21 0 3.2 8.0 2.13 2.13 2.13 94 1014.2
20260906014034 21 0 1.6 6.4 2.13 2.13 2.13 94 1014.1
20260906013526 21 0 0.0 0.0 2.13 2.13 2.13 93 1013.9
20260906013052 21 0 0.0 3.2 2.13 2.13 2.13 93 1014.0
20260906012527 21 0 0.0 4.8 2.13 2.13 2.13 92 1014.1
20260906012033 22 0 1.6 12.9 2.13 2.13 2.13 93 1014.1
20260906011603 22 52 1.6 14.5 2.13 2.13 2.13 91 1014.0
20260906011032 22 169 4.8 14.5 2.13 2.13 2.13 88 1014.1
20260906010531 22 76 1.6 37.0 2.11 2.11 2.11 89 1014.4
20260906010050 23 265 6.4 37.0 1.73 1.73 1.73 86 1014.9
20260906005530 24 88 19.3 35.4 0.89 0.89 0.89 80 1015.5
20260906005034 27 140 9.7 24.1 0.05 0.05 0.05 69 1015.1
20260906004557 28 206 3.2 19.3 0.00 0.00 0.00 66 1014.5
20260906004034 29 245 6.4 19.3 0.00 0.00 0.00 69 1014.4
20260906003532 29 46 4.8 12.9 0.00 0.00 0.00 75 1014.2
20260906003053 28 0 4.8 12.9 0.00 0.00 0.00 77 1014.0
20260906002528 28 85 1.6 3.2 0.00 0.00 0.00 78 1013.9
20260906002031 29 0 0.0 0.0 0.00 0.00 0.00 77 1013.1
20260906001556 29 0 0.0 0.0 0.00 0.00 0.00 77 1013.0
20260906001033 29 0 0.0 0.0 0.00 0.00 0.00 77 1013.2
20260906000533 30 0 0.0 0.0 0.00 0.00 0.00 76 1013.2
20260906000050 30 0 0.0 0.0 0.00 0.00 0.00 76 1013.0
20260905235528 30 0 0.0 0.0 0.00 0.00 0.00 75 1012.7
20260905235031 30 0 0.0 0.0 0.00 0.00 0.00 74 1012.6
20260905234543 30 0 0.0 0.0 0.00 0.00 0.00 73 1012.6
20260905234033 30 0 0.0 0.0 0.00 0.00 0.00 73 1012.4
20260905233530 31 0 0.0 0.0 0.00 0.00 0.00 71 1012.5
20260905233108 31 0 0.0 0.0 0.00 0.00 0.00 71 1012.6
20260905232533 31 0 0.0 0.0 0.00 0.00 0.00 70 1012.5
20260905232032 31 0 0.0 0.0 0.00 0.00 0.00 70 1012.6
20260905231555 31 0 0.0 0.0 0.00 0.00 0.00 68 1012.5
20260905231030 31 0 0.0 3.2 0.00 0.00 0.00 68 1012.7
20260905230533 32 0 0.0 4.8 0.00 0.00 0.00 67 1012.8
20260905230051 32 335 0.0 4.8 0.00 0.00 0.00 66 1012.8
20260905225531 32 338 0.0 4.8 0.00 0.00 0.00 66 1012.8
20260905225030 32 0 0.0 4.8 0.00 0.00 0.00 66 1012.8
20260905224608 32 0 0.0 3.2 0.00 0.00 0.00 66 1012.7
20260905224029 33 0 0.0 4.8 0.00 0.00 0.00 64 1012.7
20260905223532 33 0 0.0 4.8 0.00 0.00 0.00 64 1012.5
20260905223054 33 0 0.0 3.2 0.00 0.00 0.00 62 1012.5
20260905222533 33 350 0.0 3.2 0.00 0.00 0.00 62 1012.5
20260905222035 34 0 0.0 9.7 0.00 0.00 0.00 61 1012.4
20260905221557 35 310 0.0 9.7 0.00 0.00 0.00 59 1012.3
20260905221035 35 111 0.0 4.8 0.00 0.00 0.00 57 1012.3
20260905220532 35 36 0.0 3.2 0.00 0.00 0.00 52 1012.2
20260905220054 35 0 0.0 3.2 0.00 0.00 0.00 49 1012.2
20260905215530 35 273 0.0 3.2 0.00 0.00 0.00 50 1012.2
20260905215030 35 0 0.0 1.6 0.00 0.00 0.00 50 1012.2
20260905214549 35 0 0.0 1.6 0.00 0.00 0.00 50 1012.2
20260905214032 35 0 0.0 1.6 0.00 0.00 0.00 52 1012.3
20260905213530 35 0 0.0 4.8 0.00 0.00 0.00 49 1012.3
20260905213050 35 0 1.6 4.8 0.00 0.00 0.00 48 1012.3
20260905212530 35 0 0.0 3.2 0.00 0.00 0.00 47 1012.3
20260905212033 36 284 0.0 3.2 0.00 0.00 0.00 49 1012.4
20260905211545 36 0 0.0 3.2 0.00 0.00 0.00 49 1012.4
20260905211031 36 0 0.0 3.2 0.00 0.00 0.00 49 1012.5
20260905210534 36 0 0.0 3.2 0.00 0.00 0.00 50 1012.5
20260905210054 36 0 0.0 3.2 0.00 0.00 0.00 49 1012.5
20260905205530 36 0 0.0 6.4 0.00 0.00 0.00 48 1012.5
20260905205032 36 0 0.0 6.4 0.00 0.00 0.00 48 1012.4
20260905204550 36 93 0.0 6.4 0.00 0.00 0.00 49 1012.4
20260905204030 35 0 0.0 6.4 0.00 0.00 0.00 49 1012.5
20260905203529 36 230 1.6 6.4 0.00 0.00 0.00 47 1012.5
20260905203055 36 0 0.0 4.8 0.00 0.00 0.00 48 1012.5
20260905202529 36 0 1.6 4.8 0.00 0.00 0.00 48 1012.6
20260905202029 36 0 0.0 3.2 0.00 0.00 0.00 50 1012.7
20260905201608 35 0 0.0 3.2 0.00 0.00 0.00 51 1012.7
20260905201028 35 0 0.0 3.2 0.00 0.00 0.00 50 1012.8
20260905200530 35 0 0.0 4.8 0.00 0.00 0.00 48 1012.9
20260905200052 35 221 1.6 6.4 0.00 0.00 0.00 48 1013.2
20260905195529 35 0 0.0 6.4 0.00 0.00 0.00 51 1013.2
20260905195028 35 0 0.0 6.4 0.00 0.00 0.00 51 1013.2
20260905194549 35 0 0.0 6.4 0.00 0.00 0.00 52 1013.3
20260905194030 35 0 0.0 6.4 0.00 0.00 0.00 51 1013.4
20260905193531 35 304 0.0 6.4 0.00 0.00 0.00 51 1013.5
20260905193044 35 0 0.0 4.8 0.00 0.00 0.00 52 1013.6
20260905192529 35 0 0.0 4.8 0.00 0.00 0.00 51 1013.6
20260905192030 35 0 1.6 8.0 0.00 0.00 0.00 52 1013.7
20260905191557 35 258 1.6 9.7 0.00 0.00 0.00 53 1013.8
20260905191031 35 225 1.6 9.7 0.00 0.00 0.00 52 1013.7
20260905190534 35 0 1.6 9.7 0.00 0.00 0.00 52 1013.7
20260905190110 35 0 1.6 6.4 0.00 0.00 0.00 52 1013.7
20260905185528 35 298 0.0 8.0 0.00 0.00 0.00 53 1013.8
20260905185032 35 200 1.6 8.0 0.00 0.00 0.00 55 1013.8
20260905184609 35 0 1.6 9.7 0.00 0.00 0.00 54 1013.7
20260905184028 34 0 1.6 9.7 0.00 0.00 0.00 56 1013.9
20260905183529 34 86 1.6 8.0 0.00 0.00 0.00 58 1014.1
20260905183049 33 140 3.2 9.7 0.00 0.00 0.00 56 1014.3
20260905182528 34 139 1.6 14.5 0.00 0.00 0.00 56 1014.4
20260905182028 34 198 6.4 14.5 0.00 0.00 0.00 57 1014.4
20260905181555 34 217 1.6 6.4 0.00 0.00 0.00 56 1014.4
20260905181031 34 181 3.2 6.4 0.00 0.00 0.00 57 1014.4
20260905180531 34 0 3.2 6.4 0.00 0.00 0.00 58 1014.5
20260905180053 34 317 1.6 6.4 0.00 0.00 0.00 60 1014.5
20260905175528 33 256 1.6 9.7 0.00 0.00 0.00 59 1014.5
20260905175030 33 348 3.2 9.7 0.00 0.00 0.00 59 1014.6
20260905174556 34 221 4.8 9.7 0.00 0.00 0.00 58 1014.7
20260905174028 34 311 0.0 4.8 0.00 0.00 0.00 61 1014.7
20260905173529 33 0 0.0 14.5 0.00 0.00 0.00 60 1014.8
20260905173048 33 0 0.0 14.5 0.00 0.00 0.00 60 1014.9
20260905172531 33 243 3.2 14.5 0.00 0.00 0.00 61 1014.9
20260905172031 33 290 0.0 9.7 0.00 0.00 0.00 63 1015.0
20260905171557 33 298 3.2 9.7 0.00 0.00 0.00 66 1015.1
20260905171031 33 302 1.6 6.4 0.00 0.00 0.00 66 1015.1
20260905170531 33 0 0.0 8.0 0.00 0.00 0.00 67 1015.2
20260905170054 33 0 0.0 9.7 0.00 0.00 0.00 65 1015.2
20260905165530 32 319 3.2 9.7 0.00 0.00 0.00 63 1015.4
20260905165028 32 46 1.6 11.3 0.00 0.00 0.00 66 1015.4
20260905164552 32 68 4.8 11.3 0.00 0.00 0.00 67 1015.6
20260905164029 32 95 0.0 3.2 0.00 0.00 0.00 70 1015.6
20260905163530 32 174 0.0 4.8 0.00 0.00 0.00 68 1015.6
20260905163048 32 0 1.6 6.4 0.00 0.00 0.00 67 1015.7
20260905162527 32 291 1.6 8.0 0.00 0.00 0.00 68 1015.8
20260905162027 32 0 3.2 8.0 0.00 0.00 0.00 68 1015.9
20260905161557 32 269 1.6 6.4 0.00 0.00 0.00 67 1015.9
20260905161031 32 195 1.6 6.4 0.00 0.00 0.00 69 1016.0
20260905160531 32 0 3.2 6.4 0.00 0.00 0.00 70 1016.0
20260905160052 31 0 0.0 4.8 0.00 0.00 0.00 71 1016.1
20260905155529 31 0 1.6 6.4 0.00 0.00 0.00 72 1016.1
20260905155029 31 237 1.6 6.4 0.00 0.00 0.00 72 1016.1
20260905154553 31 252 3.2 6.4 0.00 0.00 0.00 72 1016.1
20260905154030 31 248 1.6 6.4 0.00 0.00 0.00 74 1016.0
20260905153529 31 254 0.0 6.4 0.00 0.00 0.00 74 1016.1
20260905153048 31 235 1.6 6.4 0.00 0.00 0.00 75 1016.1
20260905152532 30 207 0.0 4.8 0.00 0.00 0.00 77 1016.1
20260905152031 30 0 0.0 4.8 0.00 0.00 0.00 76 1016.1
20260905151555 30 0 1.6 4.8 0.00 0.00 0.00 76 1016.2
20260905151037 30 0 1.6 4.8 0.00 0.00 0.00 77 1016.3
20260905150532 30 177 0.0 4.8 0.00 0.00 0.00 79 1016.3
20260905150050 30 262 1.6 6.4 0.00 0.00 0.00 79 1016.3
20260905145531 30 289 3.2 6.4 0.00 0.00 0.00 79 1016.3
20260905145028 30 233 1.6 4.8 0.00 0.00 0.00 80 1016.3
20260905144549 29 141 0.0 4.8 0.00 0.00 0.00 82 1016.4
20260905144031 28 91 0.0 4.8 0.00 0.00 0.00 82 1016.4
20260905143531 28 0 0.0 6.4 0.00 0.00 0.00 83 1016.5
20260905143049 28 212 1.6 6.4 0.00 0.00 0.00 82 1016.4
20260905142529 28 204 1.6 4.8 0.00 0.00 0.00 83 1016.5
20260905142031 28 262 0.0 4.8 0.00 0.00 0.00 83 1016.5
20260905141611 28 0 0.0 4.8 0.00 0.00 0.00 86 1016.5
20260905141031 27 202 1.6 4.8 0.00 0.00 0.00 85 1016.6
20260905140532 27 262 1.6 9.7 0.00 0.00 0.00 86 1016.6
20260905140053 27 253 0.0 9.7 0.00 0.00 0.00 86 1016.7
20260905135531 27 291 1.6 9.7 0.00 0.00 0.00 87 1016.5
20260905135031 27 300 1.6 4.8 0.00 0.00 0.00 88 1016.4
20260905134551 26 0 0.0 4.8 0.00 0.00 0.00 90 1016.6
20260905134028 26 219 0.0 4.8 0.00 0.00 0.00 90 1016.6
20260905133531 26 0 0.0 4.8 0.00 0.00 0.00 92 1016.6
20260905133047 26 105 0.0 4.8 0.00 0.00 0.00 92 1016.7
20260905132531 25 0 0.0 0.0 0.00 0.00 0.00 93 1016.7
20260905132031 25 0 0.0 0.0 0.00 0.00 0.00 94 1016.5
20260905131610 25 0 0.0 0.0 0.00 0.00 0.00 95 1016.6
20260905131031 25 0 0.0 0.0 0.00 0.00 0.00 96 1016.7
20260905130530 24 0 0.0 0.0 0.00 0.00 0.00 97 1016.8
20260905130050 24 0 0.0 0.0 0.00 0.00 0.00 97 1016.7
20260905125530 24 0 0.0 0.0 0.00 0.00 0.00 97 1016.6
20260905125030 24 0 0.0 0.0 0.00 0.00 0.00 98 1016.7
20260905124552 24 0 0.0 0.0 0.00 0.00 0.00 98 1016.7
20260905124033 23 0 0.0 0.0 0.00 0.00 0.00 98 1016.6
20260905123528 23 0 0.0 1.6 0.00 0.00 0.00 98 1016.6
20260905123108 23 0 0.0 1.6 0.00 0.00 0.00 98 1016.5
20260905122531 23 0 0.0 1.6 0.00 0.00 0.00 98 1016.6
20260905122029 23 0 0.0 0.0 0.00 0.00 0.00 98 1016.6
20260905121552 23 0 0.0 0.0 0.00 0.00 0.00 98 1016.5
20260905121031 23 0 0.0 0.0 0.00 0.00 0.00 98 1016.5
20260905120532 23 0 0.0 0.0 0.00 0.00 0.00 98 1016.4
20260905120052 23 0 0.0 0.0 0.00 0.00 0.00 98 1016.4
20260905115527 23 0 0.0 0.0 0.00 0.00 0.00 98 1016.3
20260905115028 23 0 0.0 0.0 0.00 0.00 0.00 98 1016.3
20260905114557 23 0 0.0 0.0 0.00 0.00 0.00 98 1016.2